Regional Weather Roundup
Issued by NWS

Home | Current Version | Previous Version | Graphics & Text | Print | Product List | Glossary On
Versions: 1 2 3 4 5 6 7 8 9 10 11 12 13 14 15 16 17 18 19 20 21 22 23 24 25 26 27 28 29 30 31 32 33 34 35 36 37 38 39 40 41 42 43 44 45 46 47 48 49 50
000
ASUS45 KBOI 220310
RWRID

IDAHO REGIONAL WEATHER ROUNDUP
NATIONAL WEATHER SERVICE BOISE ID
800 PM MST SUN JAN 21 2018

NOTE: "FAIR" INDICATES FEW OR NO CLOUDS BELOW 12000 FEET
WITH NO SIGNIFICANT WEATHER AND/OR OBSTRUCTIONS TO VISIBILITY

IDZ012-014-220400-
SOUTHWEST IDAHO


CITY           SKY/WX    TMP DP  RH WIND       PRES   REMARKS
BOISE          CLOUDY    39  25  57 SE7       30.18S WCI  34
CALDWELL       LGT RAIN  41  30  65 SW6       30.20R
MOUNTAIN HOME  CLOUDY    35  33  91 E9        30.18S WCI  28
$$

IDZ016-017-220400-
SOUTHCENTRAL IDAHO


CITY           SKY/WX    TMP DP  RH WIND       PRES   REMARKS
BURLEY         CLEAR     28  22  78 S7        30.20S WCI  21
JEROME         CLEAR     31  24  75 E8        30.20S WCI  23
TWIN FALLS     PTCLDY    28  22  78 S8        30.19S WCI  20
$$

IDZ019>023-220400-
SOUTHEAST IDAHO


CITY           SKY/WX    TMP DP  RH WIND       PRES   REMARKS
IDAHO FALLS    CLEAR     27  20  75 S7        30.21S WCI  19
POCATELLO      CLEAR     27  21  78 S7        30.22S WCI  19
REXBURG        CLEAR     21  18  88 CALM      30.21R
$$

IDZ006-010-011-018-031-032-220400-
CENTRAL IDAHO MOUNTAINS


CITY           SKY/WX    TMP DP  RH WIND       PRES   REMARKS
MCCALL         CLOUDY    28  21  75 SE8       30.09S WCI  20
HAILEY         PTCLDY    21  18  86 NW6       30.18R WCI  14
STANLEY          N/A     11   8  88 CALM      30.11S
SALMON         PTCLDY    19  15  84 S3        30.17F
CHALLIS        PTCLDY    22  15  75 CALM      30.12F
$$

IDZ002-004-006-007-026-220400-
NORTHERN IDAHO


CITY           SKY/WX    TMP DP  RH WIND       PRES   REMARKS
LEWISTON       CLOUDY    43  33  68 S17G25    30.05R
LOWELL           N/A     37  34  89 NW5       30.11R WCI  33
COEUR D`ALENE  LGT RAIN  34  32  92 S12       29.97S WCI  25
MULLAN PASS    LGT SNOW  23  22  96 VRB5      29.89R FOG     WCI  17
$$



USA.gov is the U.S. government's official web portal to all federal, state and local government web resources and services.